W8APS Weather Reports


Display with metric or nautical units.
time (UTC)temp
F
wind
direction
speed
MPH
gust
MPH
rain 1hr
in
rain 24hr
in
rain mn
in
humidity
%
barometer
mb
20260510154547 53 319 3.0 11.0 0.00 0.11 0.00 35 1017.9
20260510154017 53 295 3.0 10.0 0.00 0.11 0.00 36 1017.8
20260510153515 53 234 1.0 10.0 0.00 0.11 0.00 37 1017.7
20260510153043 52 270 4.0 10.0 0.00 0.11 0.00 40 1017.6
20260510152515 52 0 0.0 7.0 0.00 0.11 0.00 39 1017.7
20260510152017 52 323 3.0 9.0 0.00 0.11 0.00 40 1017.6
20260510151532 52 293 0.0 9.0 0.00 0.11 0.00 41 1017.5
20260510151017 52 283 3.0 9.0 0.00 0.11 0.00 39 1017.6
20260510150525 52 0 1.0 9.0 0.00 0.11 0.00 40 1017.4
20260510150030 51 0 1.0 9.0 0.00 0.11 0.00 41 1017.3
20260510145515 51 33 1.0 9.0 0.00 0.11 0.00 39 1017.3
20260510145016 52 309 2.0 9.0 0.00 0.11 0.00 40 1017.3
20260510144545 51 0 0.0 10.0 0.00 0.11 0.00 41 1017.3
20260510144016 51 298 3.0 10.0 0.00 0.11 0.00 39 1017.2
20260510143518 52 340 2.0 8.0 0.00 0.11 0.00 39 1017.2
20260510143030 52 0 0.0 7.0 0.00 0.11 0.00 41 1017.1
20260510142525 51 0 0.0 7.0 0.00 0.11 0.00 43 1017.1
20260510142013 50 226 2.0 10.0 0.00 0.11 0.00 42 1017.0
20260510141533 49 0 2.0 10.0 0.00 0.11 0.00 42 1017.0
20260510141014 49 295 2.0 7.0 0.00 0.11 0.00 43 1017.0
20260510140515 49 0 3.0 7.0 0.00 0.11 0.00 43 1016.9
20260510140032 49 307 1.0 8.0 0.00 0.11 0.00 42 1016.8
20260510135516 49 0 1.0 8.0 0.00 0.11 0.00 43 1016.9
20260510135016 49 358 4.0 8.0 0.00 0.11 0.00 43 1016.8
20260510134532 49 313 2.0 7.0 0.00 0.11 0.00 44 1016.8
20260510134019 49 0 2.0 8.0 0.00 0.11 0.00 44 1016.8
20260510133515 48 0 0.0 8.0 0.00 0.11 0.00 45 1016.8
20260510133032 48 259 2.0 8.0 0.00 0.11 0.00 44 1016.7
20260510132513 48 346 0.0 6.0 0.00 0.11 0.00 47 1016.7
20260510132016 48 294 2.0 6.0 0.00 0.11 0.00 47 1016.7
20260510131533 48 336 0.0 6.0 0.00 0.11 0.00 50 1016.6
20260510131014 47 330 1.0 6.0 0.00 0.11 0.00 51 1016.5
20260510130514 47 0 1.0 7.0 0.00 0.11 0.00 52 1016.5
20260510130029 47 340 2.0 7.0 0.00 0.11 0.00 52 1016.4
20260510125513 46 322 4.0 7.0 0.00 0.11 0.00 52 1016.4
20260510125015 46 351 2.0 7.0 0.00 0.11 0.00 52 1016.4
20260510124534 46 314 2.0 6.0 0.00 0.11 0.00 53 1016.4
20260510124018 46 330 1.0 6.0 0.00 0.11 0.00 55 1016.2
20260510123520 46 281 1.0 6.0 0.00 0.11 0.00 55 1016.2
20260510123030 45 310 2.0 5.0 0.00 0.11 0.00 56 1016.1
20260510122514 45 347 1.0 5.0 0.00 0.11 0.00 57 1016.1
20260510122015 45 322 2.0 5.0 0.00 0.11 0.00 58 1016.1
20260510121531 45 319 2.0 5.0 0.00 0.11 0.00 59 1016.1
20260510121015 45 277 0.0 4.0 0.00 0.11 0.00 59 1016.0
20260510120514 44 0 0.0 5.0 0.00 0.11 0.00 60 1015.9
20260510120032 44 0 0.0 5.0 0.00 0.11 0.00 61 1015.8
20260510115515 44 0 1.0 5.0 0.00 0.11 0.00 61 1015.8
20260510115013 43 295 1.0 4.0 0.00 0.11 0.00 62 1015.7
20260510114530 43 288 0.0 3.0 0.00 0.11 0.00 63 1015.7
20260510114015 43 297 0.0 4.0 0.00 0.11 0.00 66 1015.6
20260510113515 42 0 0.0 5.0 0.00 0.11 0.00 65 1015.6
20260510113030 42 301 2.0 5.0 0.00 0.11 0.00 65 1015.5
20260510112518 42 294 0.0 3.0 0.00 0.11 0.00 66 1015.4
20260510112016 42 0 0.0 1.0 0.00 0.11 0.00 67 1015.4
20260510111530 42 0 0.0 1.0 0.00 0.11 0.00 67 1015.3
20260510111018 41 307 0.0 1.0 0.00 0.11 0.00 67 1015.2
20260510110515 41 0 0.0 0.0 0.00 0.11 0.00 68 1015.1
20260510110032 41 0 0.0 2.0 0.00 0.11 0.00 68 1014.9
20260510105515 40 0 0.0 2.0 0.00 0.11 0.00 69 1014.9
20260510105016 40 284 0.0 2.0 0.00 0.11 0.00 69 1014.9
20260510104536 40 0 0.0 1.0 0.00 0.11 0.00 70 1014.8
20260510104016 40 0 0.0 1.0 0.00 0.11 0.00 70 1014.7
20260510103515 40 0 0.0 2.0 0.00 0.11 0.00 70 1014.6
20260510103031 40 0 0.0 3.0 0.00 0.11 0.00 70 1014.6
20260510102515 40 0 0.0 3.0 0.00 0.11 0.00 70 1014.6
20260510102019 40 0 0.0 2.0 0.00 0.11 0.00 70 1014.6
20260510101532 40 0 0.0 2.0 0.00 0.11 0.00 70 1014.6
20260510101018 39 0 0.0 2.0 0.00 0.11 0.00 71 1014.5
20260510100516 39 0 0.0 2.0 0.00 0.11 0.00 71 1014.4
20260510100030 40 0 0.0 1.0 0.00 0.11 0.00 73 1014.4
20260510095518 40 0 0.0 1.0 0.00 0.11 0.00 73 1014.4
20260510095018 40 0 0.0 0.0 0.00 0.11 0.00 73 1014.3
20260510094532 40 0 0.0 0.0 0.00 0.11 0.00 74 1014.2
20260510094015 40 0 0.0 0.0 0.00 0.11 0.00 73 1014.0
20260510093519 40 0 0.0 0.0 0.00 0.11 0.00 73 1014.1
20260510093029 40 0 0.0 0.0 0.00 0.11 0.00 73 1014.0
20260510092515 40 0 0.0 0.0 0.00 0.11 0.00 73 1014.0
20260510092017 40 0 0.0 0.0 0.00 0.11 0.00 73 1013.8
20260510091532 41 0 0.0 0.0 0.00 0.11 0.00 72 1013.8
20260510091013 41 0 0.0 0.0 0.00 0.11 0.00 71 1013.7
20260510090515 41 0 0.0 0.0 0.00 0.11 0.00 71 1013.6
20260510090032 41 0 0.0 0.0 0.00 0.11 0.00 70 1013.5
20260510085515 41 0 0.0 0.0 0.00 0.11 0.00 70 1013.4
20260510085016 41 0 0.0 1.0 0.00 0.11 0.00 69 1013.3
20260510084545 41 0 0.0 2.0 0.00 0.11 0.00 69 1013.3
20260510084017 42 0 0.0 2.0 0.00 0.11 0.00 68 1013.3
20260510083516 42 0 0.0 2.0 0.00 0.11 0.00 68 1013.2
20260510083030 42 304 0.0 2.0 0.00 0.11 0.00 68 1013.1
20260510082515 42 0 0.0 0.0 0.00 0.11 0.00 68 1013.0
20260510082012 42 0 0.0 0.0 0.00 0.11 0.00 69 1012.9
20260510081535 42 0 0.0 0.0 0.00 0.11 0.00 68 1012.9
20260510081015 42 0 0.0 1.0 0.00 0.11 0.00 68 1012.8
20260510080515 43 0 0.0 1.0 0.00 0.11 0.00 68 1012.8
20260510080030 43 345 0.0 1.0 0.00 0.11 0.00 67 1012.7
20260510075516 43 0 0.0 1.0 0.00 0.11 0.00 67 1012.6
20260510075019 43 0 0.0 0.0 0.00 0.11 0.00 67 1012.4
20260510074538 43 0 0.0 0.0 0.00 0.11 0.00 67 1012.4
20260510074015 43 0 0.0 0.0 0.00 0.11 0.00 66 1012.3
20260510073515 44 0 0.0 1.0 0.00 0.11 0.00 66 1012.3
20260510073045 44 0 0.0 1.0 0.00 0.11 0.00 65 1012.1
20260510072514 44 0 0.0 0.0 0.00 0.11 0.00 65 1012.0
20260510072016 44 0 0.0 0.0 0.00 0.11 0.00 65 1012.0
20260510071532 44 0 0.0 0.0 0.00 0.11 0.00 64 1011.9
20260510071012 44 0 0.0 1.0 0.00 0.11 0.00 64 1012.0
20260510070513 44 0 0.0 2.0 0.00 0.11 0.00 64 1011.9
20260510070035 45 0 0.0 2.0 0.00 0.11 0.00 64 1011.6
20260510065518 45 0 0.0 3.0 0.00 0.11 0.00 64 1011.6
20260510065018 45 0 0.0 3.0 0.00 0.11 0.00 64 1011.5
20260510064530 45 323 0.0 2.0 0.00 0.11 0.00 64 1011.4
20260510064012 45 0 0.0 3.0 0.00 0.11 0.00 64 1011.4
20260510063517 46 0 0.0 3.0 0.00 0.11 0.00 63 1011.3
20260510063030 46 0 0.0 3.0 0.00 0.11 0.00 63 1011.3
20260510062514 46 0 0.0 3.0 0.00 0.11 0.00 62 1011.3
20260510062013 46 316 0.0 5.0 0.00 0.11 0.00 61 1011.2
20260510061531 47 0 1.0 5.0 0.00 0.11 0.00 61 1011.1
20260510061017 47 20 0.0 8.0 0.00 0.11 0.00 61 1011.1
20260510060516 47 303 3.0 9.0 0.00 0.11 0.00 60 1011.0
20260510060038 47 335 2.0 9.0 0.00 0.11 0.00 60 1010.9
20260510055514 48 336 4.0 11.0 0.00 0.11 0.00 60 1010.9
20260510055015 48 6 5.0 13.0 0.00 0.11 0.00 60 1010.8
20260510054531 48 41 6.0 13.0 0.00 0.11 0.00 60 1010.8
20260510054013 48 355 6.0 13.0 0.00 0.11 0.00 60 1010.7
20260510053515 48 327 3.0 7.0 0.00 0.11 0.00 61 1010.6
20260510053032 48 0 0.0 3.0 0.00 0.11 0.00 62 1010.5
20260510052514 48 18 0.0 0.0 0.00 0.11 0.00 62 1010.5
20260510052017 48 0 0.0 0.0 0.00 0.11 0.00 61 1010.4
20260510051530 49 0 0.0 0.0 0.00 0.11 0.00 60 1010.3
20260510051015 49 0 0.0 0.0 0.00 0.11 0.00 59 1010.3
20260510050514 49 0 0.0 0.0 0.00 0.11 0.00 59 1010.2
20260510050031 50 0 0.0 0.0 0.00 0.11 0.00 58 1010.0
20260510045515 50 0 0.0 3.0 0.00 0.11 0.00 57 1010.1
20260510045016 50 0 0.0 3.0 0.00 0.11 0.00 56 1010.0
20260510044530 50 0 1.0 6.0 0.00 0.11 0.00 55 1009.9
20260510044015 51 0 0.0 6.0 0.00 0.11 0.00 55 1009.8
20260510043516 51 342 2.0 8.0 0.00 0.11 0.00 54 1009.6
20260510043031 51 328 2.0 8.0 0.00 0.11 0.00 55 1009.5
20260510042517 51 338 2.0 8.0 0.00 0.11 0.00 55 1009.4
20260510042016 51 356 4.0 8.0 0.00 0.11 0.00 56 1009.4
20260510041534 51 340 3.0 7.0 0.00 0.11 0.00 56 1009.3
20260510041018 51 30 1.0 7.0 0.00 0.11 0.00 58 1009.3
20260510040515 51 3 1.0 5.0 0.00 0.11 0.00 59 1009.2
20260510040030 51 351 1.0 4.0 0.00 0.11 0.00 58 1009.2
20260510035512 52 319 1.0 4.0 0.00 0.11 0.11 58 1009.2
20260510035014 52 342 1.0 5.0 0.00 0.11 0.11 59 1009.1
20260510034532 52 0 0.0 5.0 0.00 0.11 0.11 59 1009.1
20260510034015 52 327 2.0 7.0 0.00 0.11 0.11 58 1009.0
20260510033519 53 316 2.0 7.0 0.00 0.11 0.11 58 1008.9
20260510033030 53 15 3.0 8.0 0.00 0.11 0.11 57 1008.9
20260510032515 53 354 3.0 8.0 0.00 0.11 0.11 56 1008.9
20260510032013 54 28 3.0 8.0 0.00 0.11 0.11 56 1008.8
20260510031535 54 318 2.0 10.0 0.00 0.11 0.11 55 1008.8
20260510031017 54 24 5.0 10.0 0.00 0.11 0.11 53 1008.8
20260510030515 55 16 4.0 9.0 0.00 0.11 0.11 53 1008.7
20260510030035 56 3 3.0 9.0 0.00 0.11 0.11 51 1008.3
20260510025515 56 0 1.0 6.0 0.00 0.11 0.11 50 1008.2
20260510025015 56 9 2.0 9.0 0.00 0.11 0.11 50 1008.1
20260510024534 57 342 2.0 9.0 0.00 0.11 0.11 49 1008.0
20260510024014 57 340 3.0 8.0 0.00 0.11 0.11 49 1008.0
20260510023514 57 317 3.0 11.0 0.00 0.11 0.11 48 1008.0
20260510023030 57 349 3.0 11.0 0.00 0.11 0.11 48 1007.9
20260510022516 57 302 5.0 12.0 0.00 0.11 0.11 47 1007.8
20260510022017 58 304 4.0 12.0 0.00 0.11 0.11 47 1007.6
20260510021534 58 296 3.0 10.0 0.00 0.11 0.11 47 1007.6
20260510021013 58 337 3.0 7.0 0.00 0.11 0.11 46 1007.5
20260510020515 58 321 1.0 6.0 0.00 0.11 0.11 46 1007.3
20260510020030 58 301 2.0 7.0 0.00 0.11 0.11 46 1007.2
20260510015517 58 326 2.0 11.0 0.00 0.11 0.11 45 1007.0
20260510015016 58 309 4.0 18.0 0.00 0.11 0.11 45 1006.9
20260510014529 58 328 7.0 18.0 0.00 0.11 0.11 44 1006.8
20260510014015 59 324 8.0 15.0 0.00 0.11 0.11 44 1006.7
20260510013514 59 308 8.0 15.0 0.00 0.11 0.11 44 1006.5
20260510013032 59 330 4.0 13.0 0.00 0.11 0.11 45 1006.3
20260510012514 60 310 5.0 13.0 0.00 0.11 0.11 45 1006.0
20260510012015 60 315 5.0 12.0 0.00 0.11 0.11 45 1005.8
20260510011531 60 309 1.0 8.0 0.00 0.11 0.11 49 1005.6
20260510011014 60 316 1.0 7.0 0.00 0.11 0.11 50 1005.4
20260510010515 60 0 1.0 7.0 0.00 0.11 0.11 49 1005.1
20260510010032 60 0 0.0 0.0 0.00 0.11 0.11 54 1005.1
20260510005514 60 0 0.0 0.0 0.00 0.11 0.11 52 1005.1
20260510005018 60 0 0.0 0.0 0.00 0.11 0.11 53 1005.0
20260510004529 60 0 0.0 4.0 0.00 0.11 0.11 51 1004.9
20260510004014 61 0 0.0 4.0 0.00 0.11 0.11 50 1004.9
20260510003514 61 0 0.0 5.0 0.00 0.11 0.11 49 1004.8
20260510003031 61 287 0.0 7.0 0.00 0.11 0.11 48 1004.6
20260510002514 61 243 1.0 7.0 0.00 0.11 0.11 47 1004.8
20260510002019 61 283 0.0 5.0 0.00 0.11 0.11 47 1004.4
20260510001531 62 0 0.0 9.0 0.00 0.11 0.11 47 1004.4
20260510001015 62 0 1.0 9.0 0.00 0.11 0.11 46 1004.3
20260510000519 62 0 1.0 9.0 0.00 0.11 0.11 46 1004.3
20260510000035 62 281 1.0 9.0 0.00 0.11 0.11 46 1004.2
20260509235515 62 268 3.0 11.0 0.00 0.11 0.11 45 1004.3
20260509235016 63 249 2.0 11.0 0.00 0.11 0.11 45 1004.1
20260509234538 63 226 2.0 11.0 0.00 0.11 0.11 45 1004.0
20260509234015 63 256 1.0 11.0 0.00 0.11 0.11 44 1004.0
20260509233515 63 287 2.0 14.0 0.00 0.11 0.11 43 1003.9
20260509233030 63 286 4.0 14.0 0.00 0.11 0.11 43 1003.9
20260509232513 63 280 6.0 16.0 0.00 0.11 0.11 42 1003.8
20260509232015 63 212 4.0 18.0 0.00 0.11 0.11 42 1003.8
20260509231530 64 245 4.0 18.0 0.00 0.11 0.11 42 1003.7
20260509231016 64 243 8.0 22.0 0.00 0.11 0.11 40 1003.7
20260509230516 65 267 8.0 22.0 0.00 0.11 0.11 39 1003.7
20260509230032 65 250 7.0 21.0 0.00 0.11 0.11 39 1003.6
20260509225516 65 246 5.0 23.0 0.00 0.11 0.11 39 1003.5
20260509225015 66 201 10.0 30.0 0.00 0.11 0.11 37 1003.4
20260509224530 66 231 9.0 30.0 0.00 0.11 0.11 37 1003.3
20260509224015 66 269 14.0 29.0 0.00 0.11 0.11 36 1003.1
20260509223519 66 245 9.0 20.0 0.00 0.11 0.11 37 1003.1
20260509223030 66 211 6.0 17.0 0.00 0.11 0.11 38 1003.0
20260509222514 66 290 4.0 17.0 0.00 0.11 0.11 38 1003.0
20260509222013 66 252 9.0 17.0 0.00 0.11 0.11 37 1002.8
20260509221529 66 236 7.0 21.0 0.00 0.11 0.11 38 1002.6
20260509221016 66 298 8.0 21.0 0.00 0.11 0.11 38 1002.6
20260509220516 66 273 11.0 21.0 0.00 0.11 0.11 37 1002.5
20260509220031 66 176 11.0 21.0 0.00 0.11 0.11 38 1002.4
20260509215518 66 213 7.0 18.0 0.00 0.11 0.11 40 1002.4
20260509215013 65 224 9.0 21.0 0.00 0.11 0.11 40 1002.4
20260509214533 65 194 9.0 21.0 0.00 0.11 0.11 40 1002.3
20260509214019 65 221 10.0 21.0 0.00 0.11 0.11 39 1002.2
20260509213514 66 290 9.0 24.0 0.00 0.11 0.11 39 1002.3
20260509213031 66 266 11.0 24.0 0.00 0.11 0.11 39 1002.3
20260509212516 66 279 9.0 26.0 0.00 0.11 0.11 39 1002.4
20260509212015 66 229 15.0 26.0 0.00 0.11 0.11 39 1002.1
20260509211530 66 223 9.0 20.0 0.00 0.11 0.11 39 1002.2
20260509211014 66 240 10.0 21.0 0.00 0.11 0.11 39 1002.2
20260509210516 66 229 10.0 21.0 0.00 0.11 0.11 40 1002.1
20260509210031 66 231 5.0 18.0 0.00 0.11 0.11 42 1002.0
20260509205514 65 226 9.0 23.0 0.00 0.11 0.11 41 1002.0
20260509205017 65 213 11.0 23.0 0.00 0.11 0.11 43 1002.1
20260509204532 65 217 8.0 20.0 0.00 0.11 0.11 42 1001.8
20260509204015 64 225 8.0 19.0 0.00 0.11 0.11 43 1002.1
20260509203515 64 231 9.0 21.0 0.00 0.11 0.11 45 1002.1
20260509203032 64 278 10.0 23.0 0.00 0.11 0.11 44 1002.2
20260509202513 63 245 10.0 23.0 0.00 0.11 0.11 44 1002.3
20260509202018 63 210 13.0 23.0 0.00 0.11 0.11 44 1002.5
20260509201532 64 236 9.0 20.0 0.00 0.11 0.11 46 1002.6
20260509201014 64 266 7.0 20.0 0.00 0.11 0.11 44 1002.5
20260509200516 64 249 9.0 20.0 0.00 0.11 0.11 45 1002.7
20260509200040 64 288 9.0 19.0 0.00 0.11 0.11 45 1002.9
20260509195520 64 248 7.0 20.0 0.00 0.11 0.11 46 1002.9
20260509195014 65 273 7.0 20.0 0.00 0.11 0.11 47 1003.2
20260509194531 64 278 5.0 20.0 0.00 0.11 0.11 49 1002.9
20260509194014 64 248 5.0 17.0 0.00 0.11 0.11 50 1002.8
20260509193521 64 279 4.0 14.0 0.00 0.11 0.11 53 1002.8
20260509193032 64 293 5.0 12.0 0.01 0.11 0.11 56 1002.8
20260509192513 63 233 3.0 12.0 0.06 0.11 0.11 65 1002.8
20260509192017 62 261 3.0 9.0 0.10 0.11 0.11 68 1002.8
20260509191532 61 0 0.0 6.0 0.11 0.11 0.11 75 1002.8
20260509191017 60 200 0.0 7.0 0.11 0.11 0.11 77 1002.6
20260509190514 59 0 1.0 8.0 0.11 0.11 0.11 77 1002.7
20260509190030 58 208 4.0 9.0 0.11 0.11 0.11 77 1002.9
20260509185513 58 193 3.0 12.0 0.11 0.11 0.11 82 1002.8
20260509185015 57 268 4.0 12.0 0.11 0.11 0.11 82 1002.9
20260509184538 56 230 2.0 8.0 0.11 0.11 0.11 84 1002.8
20260509184014 55 228 2.0 14.0 0.11 0.11 0.11 83 1002.7
20260509183516 55 285 2.0 14.0 0.11 0.11 0.11 81 1002.5
20260509183031 55 209 5.0 27.0 0.08 0.08 0.08 77 1003.1
20260509182515 58 223 6.0 27.0 0.05 0.05 0.05 69 1003.0
20260509182014 62 188 10.0 22.0 0.00 0.00 0.00 58 1003.0
20260509181531 65 271 6.0 18.0 0.00 0.00 0.00 49 1002.2
20260509181015 65 215 9.0 21.0 0.00 0.00 0.00 49 1001.4
20260509180514 65 229 9.0 21.0 0.00 0.00 0.00 50 1001.2
20260509180032 66 238 12.0 21.0 0.00 0.00 0.00 48 1001.2
20260509175516 66 224 10.0 21.0 0.00 0.00 0.00 49 1001.3
20260509175015 66 208 10.0 20.0 0.00 0.00 0.00 48 1001.3
20260509174535 66 235 12.0 22.0 0.00 0.00 0.00 48 1001.4
20260509174014 66 227 10.0 24.0 0.00 0.00 0.00 49 1001.4
20260509173514 66 245 10.0 30.0 0.00 0.00 0.00 48 1001.6
20260509173031 66 232 12.0 30.0 0.00 0.00 0.00 47 1001.6
20260509172513 66 246 7.0 17.0 0.00 0.00 0.00 51 1001.7
20260509172016 66 210 5.0 17.0 0.00 0.00 0.00 51 1001.8
20260509171533 66 181 7.0 21.0 0.00 0.00 0.00 51 1001.6
20260509171014 66 226 9.0 21.0 0.00 0.00 0.00 51 1001.6
20260509170516 66 223 10.0 21.0 0.00 0.00 0.00 51 1001.6
20260509170033 66 229 7.0 20.0 0.00 0.00 0.00 51 1001.7
20260509165513 66 181 9.0 20.0 0.00 0.00 0.00 51 1001.7
20260509165013 66 200 7.0 19.0 0.00 0.00 0.00 51 1001.8
20260509164529 65 207 10.0 19.0 0.00 0.00 0.00 52 1001.8
20260509164014 65 229 9.0 19.0 0.00 0.00 0.00 55 1001.9
20260509163513 65 213 6.0 19.0 0.00 0.00 0.00 55 1001.9
20260509163041 64 195 7.0 19.0 0.00 0.00 0.00 58 1001.9
20260509162516 64 139 10.0 19.0 0.00 0.00 0.00 57 1001.9
20260509162015 64 147 7.0 19.0 0.00 0.00 0.00 60 1002.2
20260509161531 63 200 9.0 19.0 0.00 0.00 0.00 60 1002.2
20260509161014 63 202 7.0 18.0 0.00 0.00 0.00 62 1002.3
20260509160516 62 158 5.0 13.0 0.00 0.00 0.00 63 1002.3
20260509160032 62 210 3.0 14.0 0.00 0.00 0.00 64 1002.4
20260509155514 62 196 5.0 14.0 0.00 0.00 0.00 64 1002.5
20260509155018 62 172 4.0 18.0 0.00 0.00 0.00 65 1002.5